[[{"header":{"parameterUnit":"m.s-1","parameterCategory":1,"la1":30.2991,"la2":30.254,"lo1":-89.0895,"lo2":-89.0444,"dy":0.0017,"dx":0.0017,"nx":28,"ny":28,"refTime":"2023-10-23T09:00:00:Z","depth":0,"parameterNumber":2,"parameterNumberName":"U-component_of_WINDS"},"data":[0,0,0,0,0,0,0,0,0,0,0,0,0,0,0,0,0,0,0,0,0,0,0,0,0,0,0,0,0,0,0,0,0,0,0,0,0,0,0,0,0,0,0,0,0,0,0,0,0,0,0,0,0,0,0,0,0,0,-0.7189,-0.7188,0,-0.7159,-0.7158,-0.7158,-0.7152,-0.7153,-0.7153,-0.7153,-0.7121,-0.712,-0.7119,0,0,0,0,0,0,0,0,0,0,0,0,0,-0.724,-0.7239,-0.7189,-0.7188,-0.7188,-0.7159,-0.7158,-0.7158,-0.7152,-0.7153,-0.7153,-0.7153,-0.7121,-0.712,-0.7118,0,0,0,0,0,0,0,0,0,0,0,0,0,-0.7214,-0.7238,-0.7189,-0.7182,-0.7181,-0.7159,-0.7158,-0.7158,-0.7152,-0.7153,-0.7153,-0.7153,-0.7121,-0.712,-0.7118,-0.7101,0,0,-0.7113,-0.7113,0,0,0,0,0,0,0,0,-0.7216,-0.7212,-0.7183,-0.7182,-0.7181,-0.716,-0.7164,-0.7139,-0.7152,-0.7163,-0.7153,-0.7154,-0.7133,-0.7131,-0.7124,-0.7099,-0.7098,-0.7113,-0.7112,-0.7111,-0.7111,0,0,0,0,0,0,0,-0.7218,-0.7214,-0.7177,-0.7183,-0.7181,-0.7179,-0.7176,-0.716,-0.7146,-0.7162,-0.7162,-0.7158,-0.7133,-0.7126,-0.7123,-0.7097,-0.7113,-0.7112,-0.7111,-0.711,-0.7056,-0.7056,0,0,0,0,0,0,-0.7221,-0.7215,-0.7178,-0.7176,-0.72,-0.7178,-0.7175,-0.7166,-0.7147,-0.7144,-0.7158,-0.7158,-0.7128,-0.7125,-0.7122,-0.71,-0.7111,-0.711,-0.7109,-0.7056,-0.7056,-0.7055,0,0,0,0,0,0,-0.7222,-0.7217,-0.7179,-0.7195,-0.719,-0.7177,-0.7167,-0.7165,-0.7158,-0.7143,-0.7141,-0.7153,-0.7129,-0.7125,-0.7106,-0.7099,-0.7109,-0.7108,-0.7057,-0.7056,-0.7056,-0.7055,0,0,0,0,0,0,-0.7223,-0.7218,-0.7211,-0.7195,-0.719,-0.7164,-0.7167,-0.7165,-0.7156,-0.7156,-0.7138,-0.7136,-0.7129,-0.7109,-0.7105,-0.7097,-0.7106,-0.7058,-0.7057,-0.7056,-0.7056,-0.7055,-0.7054,0,0,0,0,0,-0.7225,-0.7212,-0.7211,-0.7207,-0.7181,-0.7163,-0.716,-0.7152,-0.7155,-0.7148,-0.7139,-0.7136,-0.71,-0.7107,-0.7102,-0.7094,-0.7058,-0.7057,-0.7056,-0.7056,-0.7055,-0.7054,0,0,0,0,0,0,-0.7227,-0.721,-0.7209,-0.719,-0.7178,-0.7163,-0.7154,-0.7151,-0.7138,-0.7138,-0.7129,-0.7125,-0.7107,-0.7098,-0.7106,-0.7075,-0.7079,-0.7077,-0.7081,-0.708,-0.7079,-0.708,-0.7105,0,0,0,0,0,-0.7226,-0.7213,-0.7199,-0.7184,-0.7178,-0.7167,-0.7159,-0.7154,-0.7141,-0.7136,-0.7125,-0.7112,-0.7098,-0.7088,-0.7075,-0.7055,-0.7051,-0.7047,-0.7046,-0.7045,-0.7043,-0.7031,-0.7029,-0.7052,-0.7052,-0.7052,0,0,-0.7222,-0.7211,-0.7204,-0.7184,-0.7174,-0.7161,-0.7163,-0.7149,-0.7138,-0.7134,-0.7115,-0.7107,-0.7092,-0.7073,-0.7064,-0.7065,-0.7036,-0.7044,-0.7043,-0.7041,-0.703,-0.7028,-0.7026,-0.7051,-0.7051,-0.7052,0,0,-0.7209,-0.72,-0.7186,-0.7176,-0.7162,-0.7154,-0.7151,-0.7136,-0.713,-0.7112,-0.7108,-0.7095,-0.7071,-0.706,-0.7052,-0.7034,-0.7031,-0.703,-0.7024,-0.7013,-0.7011,-0.7009,-0.7002,-0.6999,-0.7029,-0.7029,-0.7029,0,-0.7206,-0.7186,-0.7179,-0.7165,-0.7156,-0.7152,-0.7138,-0.7129,-0.711,-0.7104,-0.7106,-0.7075,-0.7065,-0.7043,-0.7038,-0.7032,-0.7027,-0.7032,-0.7012,-0.701,-0.7008,-0.7001,-0.6999,-0.7028,-0.7028,-0.7028,-0.7028,0,-0.7183,-0.7169,-0.716,-0.7142,-0.7133,-0.7118,-0.7109,-0.71,-0.7096,-0.7088,-0.7069,-0.7057,-0.704,-0.7035,-0.7031,-0.7012,-0.7013,-0.7014,-0.7017,-0.7006,-0.6999,-0.6997,-0.7028,-0.7028,-0.7028,-0.7028,0,0,-0.7169,-0.7148,-0.7145,-0.7137,-0.712,-0.7109,-0.7095,-0.7079,-0.7071,-0.7058,-0.7045,-0.7025,-0.7026,-0.7016,-0.701,-0.7001,-0.6987,-0.7002,-0.7002,-0.6999,-0.6964,-0.6963,-0.696,-0.6985,-0.6985,-0.6984,-0.6965,0,-0.7153,-0.7127,-0.7121,-0.7099,-0.7085,-0.7081,-0.7069,-0.7057,-0.705,-0.7037,-0.7028,-0.7014,-0.7016,-0.701,-0.7,-0.699,-0.6979,-0.6992,-0.6972,-0.6971,-0.6975,-0.6956,-0.6955,-0.6937,-0.6962,-0.6962,-0.6962,0,-0.713,-0.7117,-0.7094,-0.7079,-0.7073,-0.7062,-0.7047,-0.7035,-0.7022,-0.7017,-0.7006,-0.7002,-0.6986,-0.6991,-0.6969,-0.6977,-0.6969,-0.6963,-0.6962,-0.6959,-0.6965,-0.6952,-0.6932,-0.6929,-0.6958,-0.6958,-0.6958,0,-0.7121,-0.7098,-0.7081,-0.7074,-0.7057,-0.7049,-0.7041,-0.7028,-0.7019,-0.7006,-0.6999,-0.6984,-0.6975,-0.6964,-0.6955,-0.696,-0.6933,-0.6938,-0.6927,-0.6927,-0.6921,-0.6921,-0.6898,-0.6917,-0.6917,-0.6918,-0.6918,0,-0.7103,-0.7088,-0.7077,-0.7066,-0.705,-0.7042,-0.7026,-0.7018,-0.7007,-0.6994,-0.699,-0.6978,-0.6968,-0.6955,-0.6948,-0.693,-0.6926,-0.6921,-0.6919,-0.6921,-0.6921,-0.6914,-0.6914,-0.6917,-0.6917,-0.6917,-0.6917,0,-0.7089,-0.7081,-0.7062,-0.7047,-0.7043,-0.7032,-0.7019,-0.7008,-0.7001,-0.6985,-0.698,-0.6969,-0.6952,-0.6943,-0.6923,-0.6918,-0.6898,-0.6897,-0.6902,-0.6901,-0.6891,-0.6891,-0.6861,-0.6857,-0.688,-0.688,-0.688,0,-0.7077,-0.7066,-0.7051,-0.7042,-0.7034,-0.7021,-0.7011,-0.7004,-0.6994,-0.6978,-0.6969,-0.6953,-0.6939,-0.6913,-0.6902,-0.6887,-0.6885,-0.6875,-0.6882,-0.6884,-0.6883,-0.6883,-0.6882,-0.6874,-0.6874,-0.6873,-0.6873,0,-0.7057,-0.7054,-0.7041,-0.7026,-0.7015,-0.7003,-0.6991,-0.6984,-0.6975,-0.6964,-0.6948,-0.6937,-0.6917,-0.69,-0.6884,-0.6875,-0.6872,-0.6871,-0.6868,-0.6869,-0.6872,-0.6869,-0.6898,-0.6872,-0.6872,-0.6872,-0.6872,-0.6872,-0.7043,-0.7033,-0.702,-0.7006,-0.6996,-0.6985,-0.6974,-0.6966,-0.6952,-0.6935,-0.6931,-0.6914,-0.69,-0.6878,-0.6869,-0.6855,-0.6856,-0.6851,-0.685,-0.6849,-0.6848,-0.6875,-0.6852,-0.6852,-0.6852,-0.6852,-0.6852,0,-0.7022,-0.7014,-0.7,-0.6984,-0.6972,-0.6972,-0.6959,-0.6949,-0.6934,-0.6922,-0.6908,-0.6889,-0.6873,-0.6862,-0.6845,-0.6836,-0.6834,-0.6832,-0.6832,-0.6829,-0.6848,-0.6852,-0.6834,-0.6834,-0.6834,-0.6834,-0.6834,-0.6834,-0.7009,-0.6991,-0.6987,-0.6964,-0.6955,-0.6939,-0.6931,-0.6921,-0.6911,-0.689,-0.6877,-0.687,-0.6857,-0.684,-0.6825,-0.6822,-0.6815,-0.6813,-0.681,-0.6826,-0.6828,-0.683,-0.6834,-0.6812,-0.6812,-0.6792,-0.6792,-0.6792]},{"header":{"parameterUnit":"m.s-1","parameterCategory":1,"la1":30.2991,"la2":30.254,"lo1":-89.0895,"lo2":-89.0444,"dy":0.0017,"dx":0.0017,"nx":28,"ny":28,"refTime":"2023-10-23T09:00:00:Z","depth":0,"parameterNumber":3,"parameterNumberName":"V-component_of_WINDS"},"data":[0,0,0,0,0,0,0,0,0,0,0,0,0,0,0,0,0,0,0,0,0,0,0,0,0,0,0,0,0,0,0,0,0,0,0,0,0,0,0,0,0,0,0,0,0,0,0,0,0,0,0,0,0,0,0,0,0,0,-1.1391,-1.1392,0,-1.146,-1.1461,-1.1462,-1.1513,-1.1513,-1.1514,-1.1514,-1.1583,-1.1584,-1.1585,0,0,0,0,0,0,0,0,0,0,0,0,0,-1.13,-1.1302,-1.1391,-1.1392,-1.1393,-1.146,-1.1461,-1.1462,-1.1513,-1.1513,-1.1514,-1.1514,-1.1582,-1.1584,-1.1586,0,0,0,0,0,0,0,0,0,0,0,0,0,-1.1352,-1.1302,-1.1391,-1.1426,-1.143,-1.146,-1.1461,-1.1462,-1.1512,-1.1513,-1.1514,-1.1514,-1.1582,-1.1584,-1.1586,-1.1586,0,0,-1.1592,-1.1593,0,0,0,0,0,0,0,0,-1.1349,-1.1355,-1.142,-1.1424,-1.1428,-1.1479,-1.1454,-1.1504,-1.1512,-1.1481,-1.1514,-1.1515,-1.1547,-1.1552,-1.1564,-1.1589,-1.1592,-1.1592,-1.1594,-1.1595,-1.1595,0,0,0,0,0,0,0,-1.1345,-1.1352,-1.1418,-1.1421,-1.1426,-1.1438,-1.1446,-1.1464,-1.151,-1.1484,-1.1488,-1.1495,-1.155,-1.1562,-1.1566,-1.1593,-1.1592,-1.1594,-1.1596,-1.1596,-1.1621,-1.162,0,0,0,0,0,0,-1.1336,-1.1349,-1.1416,-1.142,-1.1389,-1.1439,-1.1448,-1.1462,-1.151,-1.1517,-1.1495,-1.1497,-1.1558,-1.1563,-1.1568,-1.1571,-1.1595,-1.1597,-1.1598,-1.1621,-1.1621,-1.162,0,0,0,0,0,0,-1.1334,-1.1342,-1.1413,-1.1386,-1.1396,-1.144,-1.1455,-1.1463,-1.1475,-1.1518,-1.1526,-1.1499,-1.1558,-1.1565,-1.1581,-1.1574,-1.1598,-1.1599,-1.1622,-1.1621,-1.162,-1.1576,0,0,0,0,0,0,-1.1331,-1.1341,-1.1342,-1.1385,-1.1397,-1.1425,-1.1454,-1.1464,-1.1479,-1.1483,-1.1524,-1.1531,-1.1559,-1.1578,-1.1583,-1.1577,-1.1601,-1.1623,-1.1622,-1.1621,-1.1578,-1.1574,-1.157,0,0,0,0,0,-1.1328,-1.1326,-1.1341,-1.1349,-1.1399,-1.1425,-1.1431,-1.1465,-1.1478,-1.1479,-1.1506,-1.153,-1.1574,-1.1579,-1.1585,-1.158,-1.1624,-1.1622,-1.1621,-1.158,-1.1575,-1.157,0,0,0,0,0,0,-1.1279,-1.1332,-1.135,-1.1362,-1.1389,-1.1433,-1.1435,-1.1458,-1.1481,-1.1483,-1.1523,-1.1532,-1.1543,-1.1564,-1.1568,-1.1582,-1.1602,-1.1602,-1.1569,-1.1564,-1.156,-1.1554,-1.1603,0,0,0,0,0,-1.127,-1.1287,-1.1332,-1.1339,-1.1351,-1.1391,-1.1403,-1.1427,-1.1456,-1.1467,-1.1496,-1.1522,-1.1542,-1.1554,-1.1575,-1.1582,-1.1591,-1.1582,-1.1577,-1.1574,-1.1573,-1.1577,-1.1573,-1.1615,-1.1615,-1.1615,0,0,-1.1251,-1.1282,-1.129,-1.133,-1.1353,-1.1369,-1.14,-1.1416,-1.1428,-1.1469,-1.1486,-1.1508,-1.154,-1.1551,-1.1557,-1.1568,-1.1563,-1.1572,-1.1568,-1.157,-1.1575,-1.1571,-1.1568,-1.1614,-1.1615,-1.1615,0,0,-1.1224,-1.125,-1.1258,-1.1281,-1.1316,-1.1342,-1.1344,-1.1386,-1.1402,-1.142,-1.1451,-1.1466,-1.1499,-1.1521,-1.1536,-1.1518,-1.154,-1.1523,-1.15,-1.1504,-1.1501,-1.1498,-1.1491,-1.1488,-1.1522,-1.1522,-1.1522,0,-1.1196,-1.1222,-1.1259,-1.1273,-1.1289,-1.1328,-1.1336,-1.1356,-1.1396,-1.1406,-1.1418,-1.1461,-1.1485,-1.1501,-1.1497,-1.1508,-1.1511,-1.1518,-1.1499,-1.1496,-1.1494,-1.1488,-1.1485,-1.152,-1.152,-1.152,-1.1521,0,-1.1185,-1.1202,-1.1205,-1.1243,-1.1259,-1.127,-1.1308,-1.132,-1.1342,-1.1367,-1.1384,-1.1415,-1.1443,-1.1448,-1.147,-1.1468,-1.1473,-1.1491,-1.1511,-1.1487,-1.1482,-1.148,-1.1517,-1.1517,-1.1518,-1.1519,0,0,-1.1129,-1.1187,-1.1187,-1.1205,-1.1247,-1.1261,-1.1273,-1.1301,-1.131,-1.1336,-1.1347,-1.1375,-1.1392,-1.1409,-1.1434,-1.1437,-1.142,-1.1455,-1.1457,-1.1447,-1.1419,-1.1404,-1.1401,-1.1436,-1.1435,-1.1435,-1.1416,0,-1.1108,-1.1133,-1.1166,-1.118,-1.1196,-1.1234,-1.1244,-1.1271,-1.1294,-1.1311,-1.1337,-1.1356,-1.1378,-1.1388,-1.1394,-1.1421,-1.1415,-1.1423,-1.1445,-1.1445,-1.1435,-1.1398,-1.1383,-1.1363,-1.1414,-1.1414,-1.1413,0,-1.1086,-1.1111,-1.1126,-1.1166,-1.1175,-1.1184,-1.1212,-1.1228,-1.1258,-1.1275,-1.1295,-1.1321,-1.1336,-1.1354,-1.1374,-1.1379,-1.139,-1.1405,-1.1405,-1.1407,-1.1427,-1.1398,-1.1357,-1.1354,-1.141,-1.1411,-1.1411,0,-1.1042,-1.108,-1.1093,-1.1107,-1.1155,-1.1161,-1.1181,-1.1212,-1.1226,-1.1251,-1.126,-1.1286,-1.1299,-1.1318,-1.135,-1.1361,-1.1366,-1.1388,-1.138,-1.1379,-1.1378,-1.1378,-1.1337,-1.1387,-1.1387,-1.1387,-1.1387,0,-1.1015,-1.1022,-1.1074,-1.1083,-1.1092,-1.1131,-1.1139,-1.1162,-1.119,-1.1203,-1.1237,-1.1248,-1.1291,-1.1307,-1.1333,-1.1345,-1.1351,-1.1364,-1.1371,-1.136,-1.1359,-1.1367,-1.1369,-1.1386,-1.1387,-1.1387,-1.1387,0,-1.0967,-1.1002,-1.102,-1.1064,-1.1075,-1.108,-1.1117,-1.1126,-1.1152,-1.1168,-1.1174,-1.1215,-1.1236,-1.127,-1.1301,-1.1318,-1.1325,-1.1337,-1.1315,-1.1318,-1.1308,-1.1308,-1.1271,-1.1268,-1.132,-1.132,-1.1319,0,-1.0946,-1.0953,-1.0998,-1.101,-1.1029,-1.1047,-1.1062,-1.11,-1.1114,-1.115,-1.1154,-1.1178,-1.1199,-1.123,-1.1262,-1.1285,-1.1297,-1.1283,-1.1301,-1.129,-1.1296,-1.1295,-1.1295,-1.1278,-1.1277,-1.1277,-1.1276,0,-1.0906,-1.0923,-1.0944,-1.0971,-1.0988,-1.1011,-1.1035,-1.1042,-1.1086,-1.11,-1.1122,-1.1138,-1.117,-1.1193,-1.1221,-1.1241,-1.1265,-1.127,-1.127,-1.1259,-1.1245,-1.1251,-1.1302,-1.1271,-1.1271,-1.1272,-1.1272,-1.1272,-1.0871,-1.0878,-1.0911,-1.0933,-1.0955,-1.0977,-1.0988,-1.1016,-1.1035,-1.1064,-1.1086,-1.1106,-1.1137,-1.1177,-1.1196,-1.1212,-1.1223,-1.1222,-1.1221,-1.122,-1.1216,-1.1244,-1.1217,-1.1217,-1.1217,-1.1218,-1.1218,0,-1.0831,-1.0854,-1.0874,-1.0907,-1.0924,-1.0947,-1.0976,-1.0988,-1.1006,-1.1032,-1.1052,-1.1077,-1.11,-1.1133,-1.1158,-1.1164,-1.1176,-1.1169,-1.1169,-1.1173,-1.1205,-1.1203,-1.1159,-1.1159,-1.1159,-1.116,-1.116,-1.116,-1.0812,-1.0826,-1.0847,-1.0872,-1.0896,-1.0916,-1.093,-1.0951,-1.0972,-1.0999,-1.1018,-1.104,-1.1069,-1.1096,-1.1118,-1.1127,-1.1134,-1.1123,-1.1136,-1.1165,-1.1171,-1.1176,-1.1174,-1.1125,-1.1125,-1.1102,-1.1102,-1.1102]}]]